TimeEDT,TemperatureF,Dew PointF,Humidity,Sea Level PressureIn,VisibilityMPH,Wind Direction,Wind SpeedMPH,Gust SpeedMPH,PrecipitationIn,Events,Conditions,WindDirDegrees,DateUTC
12:54 AM,39.9,32.0,73,29.80,10.0,WSW,6.9,-,N/A,,Partly Cloudy,240,2013-10-21 04:54:00
1:54 AM,37.9,32.0,79,29.81,10.0,WSW,6.9,-,N/A,,Mostly Cloudy,240,2013-10-21 05:54:00
2:54 AM,37.0,30.9,79,29.83,10.0,WSW,3.5,-,N/A,,Partly Cloudy,250,2013-10-21 06:54:00
3:54 AM,36.0,30.9,82,29.84,10.0,WSW,3.5,-,N/A,,Clear,240,2013-10-21 07:54:00
4:54 AM,35.1,30.9,85,29.85,10.0,Calm,Calm,-,N/A,,Clear,0,2013-10-21 08:54:00
5:54 AM,35.1,30.9,85,29.87,10.0,SW,4.6,-,N/A,,Partly Cloudy,230,2013-10-21 09:54:00
6:54 AM,36.0,30.9,82,29.89,10.0,West,4.6,-,N/A,,Clear,260,2013-10-21 10:54:00
7:54 AM,37.0,32.0,82,29.92,10.0,WSW,5.8,-,N/A,,Clear,250,2013-10-21 11:54:00
8:54 AM,41.0,34.0,76,29.94,10.0,WSW,6.9,-,N/A,,Overcast,250,2013-10-21 12:54:00
9:54 AM,44.1,35.1,71,29.96,10.0,WSW,3.5,-,N/A,,Overcast,250,2013-10-21 13:54:00
10:54 AM,46.9,35.1,63,29.95,10.0,NW,11.5,-,N/A,,Mostly Cloudy,320,2013-10-21 14:54:00
11:11 AM,48.2,35.6,62,29.93,10.0,WNW,10.4,-,N/A,,Scattered Clouds,300,2013-10-21 15:11:00
11:54 AM,51.1,37.0,59,29.96,10.0,NW,8.1,-,N/A,,Mostly Cloudy,310,2013-10-21 15:54:00
12:54 PM,51.1,36.0,56,29.96,10.0,NW,6.9,-,N/A,,Mostly Cloudy,320,2013-10-21 16:54:00
1:54 PM,53.1,36.0,52,29.95,10.0,West,5.8,-,N/A,,Scattered Clouds,260,2013-10-21 17:54:00
2:54 PM,53.1,36.0,52,29.95,10.0,Variable,3.5,-,N/A,,Scattered Clouds,0,2013-10-21 18:54:00
3:54 PM,54.0,35.1,49,29.96,10.0,WSW,6.9,-,N/A,,Clear,250,2013-10-21 19:54:00
4:54 PM,52.0,34.0,50,29.96,10.0,West,3.5,-,N/A,,Clear,260,2013-10-21 20:54:00
5:54 PM,48.9,34.0,56,29.97,10.0,Calm,Calm,-,N/A,,Scattered Clouds,0,2013-10-21 21:54:00
6:54 PM,48.9,34.0,56,29.97,10.0,WSW,3.5,-,N/A,,Overcast,240,2013-10-21 22:54:00
7:54 PM,45.0,35.1,68,29.98,10.0,Calm,Calm,-,N/A,,Scattered Clouds,0,2013-10-21 23:54:00
8:54 PM,43.0,37.0,80,29.98,10.0,South,3.5,-,N/A,,Overcast,180,2013-10-22 00:54:00
9:54 PM,45.0,36.0,71,29.97,10.0,SE,3.5,-,N/A,,Overcast,130,2013-10-22 01:54:00
10:54 PM,45.0,35.1,68,29.96,10.0,SE,3.5,-,N/A,,Overcast,140,2013-10-22 02:54:00
11:54 PM,45.0,36.0,71,29.95,10.0,Calm,Calm,-,0.00,Rain,Light Rain,0,2013-10-22 03:54:00